ANA54 EDDF-LTFM

Flight info

Callsign ANA54
Flight time N/A
Altitude 31000
Route CINDY2D CINDY Z74 HAREM DCT ASLEP DCT TAKUT L603 BESNI/N0480F330 L605 MIQ DCT ALUTU DCT BIBAG DCT ESEGA DCT VELOM DCT GOTAR DCT NALOX DCT BABIT DCT ESIRI DCT ETIDA T390 RILEX
Aircraft B77L/H-SDE1E2E3FGHIJ2J3J4J5M1RWXY/LB1D1

Departure

Time 2026-04-17 10:40
Airport Frankfurt Main Airport (EDDF)

Arrival

Time N/A
Airport İstanbul Airport (LTFM)
Time Latitude Longitude Altitude Speed Heading
2026-04-17 10:05 50.04057 8.54770 355 ft 0 kts 69°
2026-04-17 10:28 50.04050 8.54741 362 ft 4 kts 69°
2026-04-17 10:28 50.04042 8.54707 363 ft 4 kts 74°
2026-04-17 10:28 50.04039 8.54674 362 ft 4 kts 112°
2026-04-17 10:29 50.04052 8.54649 363 ft 4 kts 153°
2026-04-17 10:29 50.04076 8.54634 358 ft 2 kts 160°
2026-04-17 10:29 50.04082 8.54630 359 ft 1 kts 160°
2026-04-17 10:31 50.04081 8.54630 359 ft 0 kts 160°
2026-04-17 10:31 50.04033 8.54658 363 ft 11 kts 160°
2026-04-17 10:32 50.03957 8.54674 358 ft 11 kts 204°
2026-04-17 10:32 50.03912 8.54575 357 ft 12 kts 249°
2026-04-17 10:32 50.03882 8.54453 358 ft 12 kts 249°
2026-04-17 10:32 50.03836 8.54346 358 ft 12 kts 205°
2026-04-17 10:33 50.03749 8.54365 355 ft 13 kts 162°
2026-04-17 10:33 50.03699 8.54472 352 ft 13 kts 85°
2026-04-17 10:33 50.03728 8.54610 357 ft 13 kts 70°
2026-04-17 10:33 50.03760 8.54745 355 ft 13 kts 69°
2026-04-17 10:34 50.03793 8.54884 359 ft 14 kts 70°
2026-04-17 10:34 50.03830 8.55036 362 ft 16 kts 70°
2026-04-17 10:34 50.03870 8.55205 360 ft 18 kts 70°
2026-04-17 10:34 50.03916 8.55396 358 ft 20 kts 69°
2026-04-17 10:35 50.03966 8.55606 360 ft 22 kts 70°
2026-04-17 10:35 50.04019 8.55830 359 ft 22 kts 70°
2026-04-17 10:35 50.04072 8.56051 363 ft 22 kts 70°
2026-04-17 10:35 50.04126 8.56275 363 ft 22 kts 69°
2026-04-17 10:36 50.04179 8.56499 366 ft 22 kts 70°
2026-04-17 10:36 50.04232 8.56720 363 ft 22 kts 70°
2026-04-17 10:36 50.04285 8.56945 368 ft 22 kts 70°
2026-04-17 10:36 50.04339 8.57169 366 ft 22 kts 70°
2026-04-17 10:37 50.04392 8.57392 371 ft 22 kts 70°
2026-04-17 10:37 50.04445 8.57613 373 ft 22 kts 70°
2026-04-17 10:37 50.04498 8.57836 371 ft 22 kts 69°
2026-04-17 10:37 50.04551 8.58061 371 ft 22 kts 70°
2026-04-17 10:38 50.04604 8.58283 375 ft 22 kts 69°
2026-04-17 10:38 50.04642 8.58439 375 ft 12 kts 70°
2026-04-17 10:38 50.04635 8.58554 376 ft 12 kts 134°
2026-04-17 10:38 50.04560 8.58610 375 ft 12 kts 161°
2026-04-17 10:39 50.04485 8.58574 377 ft 12 kts 234°
2026-04-17 10:39 50.04455 8.58455 377 ft 12 kts 250°
2026-04-17 10:39 50.04388 8.58173 375 ft 58 kts 249°
2026-04-17 10:39 50.04148 8.57170 373 ft 137 kts 250°
2026-04-17 10:40 50.03738 8.55446 503 ft 187 kts 249°
2026-04-17 10:40 50.03287 8.53452 1070 ft 205 kts 250°
2026-04-17 10:40 50.02773 8.51352 1798 ft 212 kts 240°
2026-04-17 10:40 50.01681 8.49776 2263 ft 228 kts 203°
2026-04-17 10:41 50.00109 8.49073 2526 ft 246 kts 184°
2026-04-17 10:41 49.98408 8.49589 3175 ft 257 kts 153°
2026-04-17 10:41 49.97065 8.51450 3921 ft 263 kts 125°
2026-04-17 10:41 49.96117 8.53932 4648 ft 269 kts 120°
2026-04-17 10:42 49.95219 8.56460 5421 ft 272 kts 120°
2026-04-17 10:42 49.94322 8.59076 6196 ft 274 kts 113°
2026-04-17 10:42 49.93951 8.61990 6817 ft 280 kts 92°
2026-04-17 10:42 49.93873 8.65054 7468 ft 286 kts 93°
2026-04-17 10:43 49.93650 8.68122 8243 ft 285 kts 109°
2026-04-17 10:43 49.92637 8.70723 8910 ft 288 kts 138°
2026-04-17 10:43 49.91049 8.72616 9575 ft 289 kts 146°
2026-04-17 10:43 49.89394 8.74416 10259 ft 293 kts 145°
2026-04-17 10:44 49.87906 8.76606 10623 ft 305 kts 123°
2026-04-17 10:44 49.86858 8.79565 10793 ft 326 kts 117°
2026-04-17 10:44 49.85763 8.82800 11032 ft 348 kts 118°
2026-04-17 10:44 49.84578 8.86147 11593 ft 359 kts 119°
2026-04-17 10:45 49.83352 8.89546 12282 ft 367 kts 120°
2026-04-17 10:45 49.82087 8.93030 13103 ft 372 kts 120°
2026-04-17 10:45 49.80816 8.96522 13903 ft 378 kts 120°
2026-04-17 10:45 49.79503 9.00128 14610 ft 383 kts 120°
2026-04-17 10:46 49.78197 9.03714 15320 ft 388 kts 120°
2026-04-17 10:46 49.76854 9.07389 16036 ft 393 kts 120°
2026-04-17 10:46 49.75702 9.11266 16685 ft 398 kts 107°
2026-04-17 10:46 49.75072 9.15436 17317 ft 403 kts 102°
2026-04-17 10:47 49.74228 9.19613 17931 ft 408 kts 118°
2026-04-17 10:47 49.72568 9.23125 18570 ft 410 kts 135°
2026-04-17 10:47 49.70569 9.26339 19212 ft 413 kts 135°
2026-04-17 10:47 49.68590 9.29571 19797 ft 419 kts 134°
2026-04-17 10:48 49.66625 9.32932 20392 ft 423 kts 133°
2026-04-17 10:48 49.64663 9.36368 20975 ft 428 kts 132°
2026-04-17 10:48 49.62850 9.40066 21569 ft 434 kts 123°
2026-04-17 10:48 49.61369 9.44120 22139 ft 440 kts 117°
2026-04-17 10:49 49.60185 9.48460 22701 ft 444 kts 109°
2026-04-17 10:49 49.59214 9.53043 23290 ft 449 kts 108°
2026-04-17 10:49 49.58267 9.57674 23857 ft 453 kts 107°
2026-04-17 10:49 49.57316 9.62282 24351 ft 457 kts 108°
2026-04-17 10:50 49.56327 9.66979 24870 ft 460 kts 108°
2026-04-17 10:50 49.55326 9.71643 25386 ft 463 kts 108°
2026-04-17 10:50 49.54295 9.76387 25881 ft 466 kts 109°
2026-04-17 10:50 49.53055 9.80976 26347 ft 470 kts 117°
2026-04-17 10:51 49.51478 9.85371 26809 ft 473 kts 122°
2026-04-17 10:51 49.49603 9.89590 27285 ft 475 kts 129°
2026-04-17 10:51 49.47533 9.93512 27756 ft 478 kts 131°
2026-04-17 10:51 49.45386 9.97479 28231 ft 481 kts 131°
2026-04-17 10:52 49.43257 10.01425 28671 ft 485 kts 131°
2026-04-17 10:52 49.41102 10.05467 29121 ft 488 kts 130°
2026-04-17 10:52 49.38965 10.09506 29575 ft 492 kts 130°
2026-04-17 10:52 49.36791 10.13616 29998 ft 495 kts 130°
2026-04-17 10:53 49.34624 10.17693 30404 ft 498 kts 130°
2026-04-17 10:53 49.32410 10.21840 30764 ft 501 kts 130°
2026-04-17 10:53 49.30187 10.25998 31127 ft 503 kts 130°
2026-04-17 10:53 49.27990 10.30106 31474 ft 506 kts 130°
2026-04-17 10:54 49.25740 10.34307 31819 ft 508 kts 130°
2026-04-17 10:54 49.23492 10.38427 32128 ft 509 kts 133°
2026-04-17 10:54 49.21008 10.42348 32421 ft 511 kts 137°
2026-04-17 10:54 49.18440 10.46083 32718 ft 512 kts 138°
2026-04-17 10:55 49.15847 10.49860 33012 ft 514 kts 137°
2026-04-17 10:55 49.13276 10.53659 33272 ft 515 kts 137°
2026-04-17 10:55 49.10729 10.57449 33606 ft 515 kts 137°
2026-04-17 10:55 49.08149 10.61285 33994 ft 514 kts 137°
2026-04-17 10:56 49.05613 10.65042 34384 ft 511 kts 137°
2026-04-17 10:56 49.03913 10.67552 34610 ft 510 kts 137°
2026-04-17 10:56 49.00502 10.72558 34977 ft 510 kts 138°
2026-04-17 10:56 48.97939 10.76307 35206 ft 511 kts 138°
2026-04-17 10:57 48.95388 10.80037 35233 ft 514 kts 138°
2026-04-17 10:57 48.91062 10.86358 35260 ft 519 kts 138°
2026-04-17 10:58 48.85871 10.93964 35244 ft 519 kts 138°
2026-04-17 10:58 48.80676 11.01567 35243 ft 517 kts 138°
2026-04-17 10:59 48.75492 11.09120 35237 ft 516 kts 139°
2026-04-17 10:59 48.70319 11.16631 35235 ft 515 kts 139°
2026-04-17 11:00 48.65554 11.24705 35234 ft 518 kts 125°
2026-04-17 11:00 48.62257 11.34434 35231 ft 520 kts 109°
2026-04-17 11:01 48.60148 11.44848 35235 ft 520 kts 108°
2026-04-17 11:01 48.57990 11.55283 35242 ft 520 kts 109°
2026-04-17 11:02 48.56036 11.65776 35244 ft 521 kts 103°
2026-04-17 11:02 48.54532 11.76474 35246 ft 521 kts 102°
2026-04-17 11:03 48.53025 11.87123 35241 ft 522 kts 103°
2026-04-17 11:03 48.51459 11.97784 35242 ft 522 kts 103°
2026-04-17 11:04 48.49869 12.08487 35244 ft 522 kts 103°
2026-04-17 11:04 48.48271 12.19149 35242 ft 523 kts 104°
2026-04-17 11:05 48.46651 12.29835 35241 ft 523 kts 104°
2026-04-17 11:05 48.45028 12.40485 35238 ft 523 kts 104°
2026-04-17 11:06 48.43383 12.51220 35237 ft 523 kts 104°
2026-04-17 11:06 48.41737 12.61888 35236 ft 523 kts 104°
2026-04-17 11:07 48.40085 12.72531 35237 ft 523 kts 104°
2026-04-17 11:07 48.37949 12.82945 35242 ft 521 kts 111°
2026-04-17 11:08 48.35486 12.93181 35242 ft 521 kts 111°
2026-04-17 11:08 48.33053 13.03419 35236 ft 522 kts 111°
2026-04-17 11:09 48.30635 13.13714 35235 ft 522 kts 111°
2026-04-17 11:09 48.28213 13.23990 35235 ft 522 kts 110°
2026-04-17 11:10 48.24603 13.39336 35236 ft 522 kts 110°
2026-04-17 11:10 48.22000 13.49496 35238 ft 521 kts 117°
2026-04-17 11:11 48.18396 13.58868 35246 ft 518 kts 125°
2026-04-17 11:11 48.14422 13.67942 35238 ft 519 kts 125°
2026-04-17 11:12 48.10495 13.76941 35241 ft 519 kts 125°
2026-04-17 11:12 48.06558 13.86033 35238 ft 519 kts 124°
2026-04-17 11:13 48.02646 13.95078 35239 ft 519 kts 124°
2026-04-17 11:13 47.98721 14.04123 35239 ft 519 kts 124°
2026-04-17 11:14 47.94800 14.13121 35239 ft 519 kts 124°
2026-04-17 11:14 47.90855 14.22139 35240 ft 519 kts 124°
2026-04-17 11:15 47.86905 14.31141 35240 ft 519 kts 124°
2026-04-17 11:15 47.82933 14.40164 35245 ft 519 kts 124°
2026-04-17 11:16 47.78980 14.49113 35225 ft 519 kts 124°
2026-04-17 11:16 47.75017 14.58056 35234 ft 519 kts 124°
2026-04-17 11:17 47.71030 14.67023 35241 ft 520 kts 124°
2026-04-17 11:17 47.67012 14.76031 35235 ft 521 kts 124°
2026-04-17 11:18 47.63005 14.84985 35237 ft 521 kts 124°
2026-04-17 11:18 47.58985 14.93938 35230 ft 522 kts 124°
2026-04-17 11:19 47.54981 15.02826 35221 ft 522 kts 124°
2026-04-17 11:19 47.50924 15.11805 35245 ft 522 kts 124°
2026-04-17 11:20 47.46880 15.20722 35227 ft 522 kts 124°
2026-04-17 11:20 47.42825 15.29637 35224 ft 522 kts 124°
2026-04-17 11:21 47.38775 15.38512 35209 ft 522 kts 124°
2026-04-17 11:21 47.34713 15.47384 35202 ft 522 kts 124°
2026-04-17 11:22 47.30649 15.56233 35202 ft 522 kts 124°
2026-04-17 11:22 47.26582 15.65060 35203 ft 522 kts 124°
2026-04-17 11:23 47.22490 15.73912 35195 ft 522 kts 124°
2026-04-17 11:23 47.18394 15.82744 35197 ft 522 kts 124°
2026-04-17 11:24 47.14308 15.91530 35201 ft 522 kts 124°
2026-04-17 11:24 47.10213 16.00304 35195 ft 522 kts 124°
2026-04-17 11:25 47.06111 16.09071 35195 ft 522 kts 124°
2026-04-17 11:25 47.02018 16.17894 35197 ft 522 kts 121°
2026-04-17 11:26 46.98760 16.27371 35201 ft 520 kts 110°
2026-04-17 11:26 46.96525 16.37403 35202 ft 519 kts 105°
2026-04-17 11:27 46.94439 16.47522 35192 ft 520 kts 105°
2026-04-17 11:27 46.92289 16.57623 35298 ft 520 kts 105°
2026-04-17 11:28 46.90091 16.67783 35208 ft 529 kts 104°
2026-04-17 11:28 46.87811 16.78059 35194 ft 535 kts 107°
2026-04-17 11:29 46.84598 16.87934 35194 ft 541 kts 119°
2026-04-17 11:29 46.80558 16.97220 35190 ft 542 kts 120°
2026-04-17 11:30 46.76504 17.06419 35194 ft 541 kts 120°
2026-04-17 11:30 46.72449 17.15718 35182 ft 540 kts 120°
2026-04-17 11:31 46.68440 17.24960 35182 ft 540 kts 120°
2026-04-17 11:31 46.64432 17.34181 35195 ft 540 kts 120°
2026-04-17 11:32 46.60401 17.43413 35181 ft 540 kts 120°
2026-04-17 11:32 46.56368 17.52615 35181 ft 540 kts 120°
2026-04-17 11:33 46.52327 17.61799 35174 ft 540 kts 120°
2026-04-17 11:33 46.48296 17.70933 35176 ft 540 kts 120°
2026-04-17 11:34 46.44250 17.80074 35171 ft 540 kts 120°
2026-04-17 11:34 46.40175 17.89248 35171 ft 539 kts 120°
2026-04-17 11:35 46.36106 17.98379 35173 ft 539 kts 121°
2026-04-17 11:35 46.32032 18.07491 35167 ft 539 kts 121°
2026-04-17 11:36 46.27962 18.16565 35163 ft 539 kts 121°
2026-04-17 11:36 46.23875 18.25647 35163 ft 539 kts 121°
2026-04-17 11:37 46.19770 18.34738 35165 ft 539 kts 121°
2026-04-17 11:37 46.15677 18.43775 35153 ft 539 kts 121°
2026-04-17 11:38 46.11591 18.52767 35163 ft 538 kts 121°
2026-04-17 11:38 46.07488 18.61770 35159 ft 538 kts 121°
2026-04-17 11:39 46.03358 18.70801 35156 ft 538 kts 121°
2026-04-17 11:39 45.99244 18.79771 35155 ft 537 kts 122°
2026-04-17 11:40 45.95130 18.88714 35156 ft 537 kts 122°
2026-04-17 11:40 45.90668 18.97320 35162 ft 538 kts 130°
2026-04-17 11:41 45.85714 19.05375 35152 ft 538 kts 130°
2026-04-17 11:41 45.80740 19.13395 35153 ft 537 kts 130°
2026-04-17 11:42 45.75812 19.21406 35152 ft 537 kts 130°
2026-04-17 11:42 45.70888 19.29439 35143 ft 537 kts 130°
2026-04-17 11:43 45.65956 19.37472 35146 ft 536 kts 130°
2026-04-17 11:43 45.61042 19.45445 35144 ft 536 kts 130°
2026-04-17 11:44 45.56115 19.53409 35141 ft 536 kts 131°
2026-04-17 11:44 45.51168 19.61385 35138 ft 535 kts 131°
2026-04-17 11:45 45.46248 19.69294 35136 ft 535 kts 131°
2026-04-17 11:45 45.41307 19.77213 35135 ft 534 kts 131°
2026-04-17 11:46 45.36376 19.85094 35129 ft 533 kts 131°
2026-04-17 11:46 45.32260 19.91657 35124 ft 532 kts 131°
2026-04-17 11:47 45.27340 19.99481 35124 ft 532 kts 131°
2026-04-17 11:47 45.22385 20.07337 35125 ft 531 kts 131°
2026-04-17 11:48 45.17458 20.15127 35123 ft 530 kts 131°
2026-04-17 11:48 45.12544 20.22875 35125 ft 530 kts 132°
2026-04-17 11:49 45.07627 20.30607 35129 ft 529 kts 132°
2026-04-17 11:49 45.02713 20.38313 35128 ft 528 kts 132°
2026-04-17 11:50 44.97788 20.46013 35123 ft 527 kts 132°
2026-04-17 11:50 44.92873 20.53677 35105 ft 527 kts 132°
2026-04-17 11:51 44.87925 20.61371 35102 ft 526 kts 133°
2026-04-17 11:51 44.83014 20.68988 35104 ft 525 kts 133°
2026-04-17 11:52 44.78090 20.76603 35099 ft 525 kts 133°
2026-04-17 11:52 44.73179 20.84176 35095 ft 524 kts 133°
2026-04-17 11:53 44.68257 20.91748 35096 ft 523 kts 133°
2026-04-17 11:53 44.63372 20.99242 35092 ft 523 kts 133°
2026-04-17 11:54 44.58443 21.06782 35091 ft 522 kts 133°
2026-04-17 11:54 44.53540 21.14263 35091 ft 522 kts 133°
2026-04-17 11:55 44.48624 21.21744 35088 ft 521 kts 134°
2026-04-17 11:55 44.43718 21.29191 35083 ft 521 kts 134°
2026-04-17 11:56 44.38799 21.36639 35083 ft 521 kts 134°
2026-04-17 11:56 44.33896 21.44044 35087 ft 520 kts 134°
2026-04-17 11:57 44.28992 21.51454 35100 ft 519 kts 134°
2026-04-17 11:57 44.24085 21.58905 35076 ft 519 kts 134°
2026-04-17 11:58 44.19221 21.66279 35072 ft 518 kts 134°
2026-04-17 11:58 44.14338 21.73658 35087 ft 518 kts 134°
2026-04-17 11:59 44.09450 21.81017 35085 ft 517 kts 134°
2026-04-17 11:59 44.04539 21.88393 35075 ft 517 kts 134°
2026-04-17 12:00 43.99656 21.95707 35069 ft 517 kts 134°
2026-04-17 12:00 43.94771 22.03007 35072 ft 516 kts 135°
2026-04-17 12:01 43.89882 22.10293 35070 ft 516 kts 135°
2026-04-17 12:01 43.84983 22.17576 35066 ft 517 kts 135°